Regional Weather Roundup
Issued by NWS Cleveland, OH

Home | Current Version | Previous Version | Text Only | Print | Product List | Glossary On
Versions: 1 2 3 4 5 6 7 8 9 10 11 12 13 14 15 16 17 18 19 20 21 22 23 24 25 26 27 28 29 30 31 32 33 34 35 36 37 38 39 40 41 42 43 44 45 46 47 48 49 50
000
ASUS41 KCLE 071712
RWRCLE
OHIO REGIONAL WEATHER ROUNDUP
NATIONAL WEATHER SERVICE WILMINGTON, OH
1200 PM EST WED DEC 07 2016

NOTE: "FAIR" INDICATES FEW OR NO CLOUDS BELOW 12,000 FEET WITH NO
SIGNIFICANT WEATHER AND/OR OBSTRUCTIONS TO VISIBILITY.

OHZ001>008-015>018-024>027-034-035-043-044-071800-
   NORTHWEST OHIO

CITY           SKY/WX    TMP DP  RH WIND       PRES   REMARKS
DEFIANCE       FAIR      33  22  63 SW13G22   30.10R WCI  24
FINDLAY        FAIR      34  23  64 SW13      30.09S WCI  25
TOLEDO EXPRESS FAIR      32  22  66 SW16      30.07F WCI  21
TOLEDO EXEC    FAIR      33  25  72 SW16      30.08S WCI  23
LIMA           FAIR      32  24  72 SW14      30.10F WCI  22
$$

OHZ009>014-019>023-028>033-038-089-071800-
   NORTHEAST OHIO

CITY           SKY/WX    TMP DP  RH WIND       PRES   REMARKS
CLE-HOPKINS    PTSUNNY   36  22  56 SW13      30.08F
CLE-LAKEFRONT  FAIR      35  24  64 S13       30.05F WCI  26
CUY CO. ARPT   PTSUNNY   36  25  64 W14       30.04F
LORAIN-ELYRIA  FAIR      33  24  69 SW14      30.07F WCI  23
ASHTABULA      FAIR      34  26  72 SW10      30.03F WCI  26
AKRON-CANTON   PTSUNNY   35  23  61 SW12      30.07F WCI  27
WOOSTER        FAIR      33  23  66 SW14      30.07F WCI  23
MANSFIELD      FAIR      32  22  66 SW13      30.07F WCI  22
YOUNGSTOWN     FAIR      36  25  64 SW9       30.03F
$$

OHZ042-051>053-060>062-070>072-077>081-071800-
  SOUTHWEST OHIO

CITY           SKY/WX    TMP DP  RH WIND       PRES   REMARKS
CINC-COVINGTON PTSUNNY   36  23  59 SW7       30.16F
CINC-LUNKEN    FAIR      39  25  57 S6        30.19F
HAMILTON       FAIR      37  22  54 SW8       30.18F
DAYTON         PTSUNNY   36  22  56 SW12      30.14F
WRIGHT-PAT AFB PTSUNNY   37  22  54 SW8       30.13F
DAYTON GENERAL FAIR      36  20  52 SW9       30.13F
WILMINGTON     FAIR      36  23  59 W6        30.14F
$$

OHZ036-037-039>041-045>050-054>059-063>069-073>076-082>088-071800-
  CENTRAL AND SOUTHEAST OHIO

CITY           SKY/WX    TMP DP  RH WIND       PRES   REMARKS
COLUMBUS       FAIR      36  24  62 SW7       30.13F
OSU AIRPORT    FAIR      35  24  64 SW12      30.12F WCI  27
BOLTON FIELD   MOSUNNY   36  25  64 W8        30.15F
RICKENBACK AFB   N/A     35  23  62 W5        30.15F
NEWARK         FAIR      35  23  61 W6        30.12F
MARION         FAIR      33  22  63 SW14      30.10F WCI  23
LANCASTER      FAIR      36  25  64 W10       30.15F
ZANESVILLE     FAIR      37  25  61 NW9       30.13F
NEW PHILLY     FAIR      37  27  67 VRB6      30.12S
$$



USA.gov is the U.S. government's official web portal to all federal, state and local government web resources and services.